Regional Weather Roundup
Issued by NWS

Home | Current Version | Previous Version | Text Only | Print | Product List | Glossary Off
Versions: 1 2 3 4 5 6 7 8 9 10 11 12 13 14 15 16 17 18 19 20 21 22 23 24 25 26 27 28 29 30 31 32 33 34 35 36 37 38 39 40 41 42 43 44 45 46 47 48 49 50

000
ASUS43 KBIS 150359
RWRND

NORTH DAKOTA REGIONAL WEATHER ROUNDUP
NATIONAL WEATHER SERVICE BISMARCK ND
1100 PM CDT SUN SEP 14 2014

NOTE: "FAIR" INDICATES FEW OR NO CLOUDS BELOW 12,000 FEET WITH NO
SIGNIFICANT WEATHER AND/OR OBSTRUCTIONS TO VISIBILITY.


NDZ001>003-009>011-017-150500-
NORTHWEST NORTH DAKOTA

CITY           SKY/WX    TMP DP  RH WIND       PRES   REMARKS
WILLISTON      PTCLDY    36  31  82 CALM      30.19R
MINOT          PTCLDY    42  35  76 SW7       30.18R
MINOT AFB      CLEAR     35  33  92 SW7       30.18R
$$

NDZ018>021-031>035-040>046-150500-
SOUTHWEST NORTH DAKOTA

CITY           SKY/WX    TMP DP  RH WIND       PRES   REMARKS
BISMARCK       MOCLDY    45  39  79 SE3       30.21R
GARRISON         N/A     41  35  79 N5        30.20R
HETTINGER ARPT CLOUDY    46  37  71 NE5       30.21R
$$

NDZ004>008-012>016-024-026-027-054-150500-
NORTHEAST NORTH DAKOTA

CITY           SKY/WX    TMP DP  RH WIND       PRES   REMARKS
GRAND FORKS    CLOUDY    49  44  83 CALM      30.16R
GRND FRKS AFB  CLOUDY    47  44  89 NW2       30.16R
DEVILS LAKE    CLOUDY    48  37  66 NW5       30.16S
$$

NDZ022-023-025-028>030-036>039-047>053-150500-
SOUTHEAST NORTH DAKOTA

CITY           SKY/WX    TMP DP  RH WIND       PRES   REMARKS
FARGO          CLOUDY    50  43  77 NW5       30.16R
$$




USA.gov is the U.S. government's official web portal to all federal, state and local government web resources and services.